Location: Aurora Center
(43.5271°N, 98.5894°W)
Time: 01:24:30
(UTC-05:00)

Envisat - Pass Details

Date: 18 June 2024
Orbit: 762 x 764 km, 98.3° (Epoch: 12 July)

Event Time Altitude Azimuth Distance (km) Brightness Sun altitude
Rises 03:32:53 0° 31° (NNE) 3,234 8.0 -17.8°
Reaches altitude 10° 03:36:11 10° 54° (NE) 2,302 6.5 -17.6°
Maximum altitude 03:39:07 15° 90° (E) 1,946 5.5 -17.3°
Drops below altitude 10° 03:42:04 10° 126° (SE) 2,291 5.4 -17.0°
Enters shadow 03:45:09 - 147° (SSE) 3,157 5.9 -16.7°
